www.pogodaiklimat.ru

Погода и климат >> Архив погоды >> Швейцария >> Эвьона


ПОГОДА в Эвьоне

  • Прогноз погоды в Эвьоне
  • Монитор погоды в Эвьоне

АРХИВ ПОГОДЫ в Эвьоне

Время (UTC), дата Ветер
(напр.,м/с)
 
Видим.   Явления Облачность Т
(С)
Тd
(С)
f
(%)
Тe
(С)
Тes
(С)
Комфортность P
(гПа)
Po
(гПа)
Тmin
(С)
Tmax
(С)
R
(мм)
R24
(мм)
S
(см)
19 12.07 СЗ 5
{11}
н/о н/о +23.8 +12.5 49 +26 +26 жарко 1012.5 958.4
20 12.07 СЗ 5
{10}
н/о н/о +23.2 +12.5 51 +26 +26 жарко 1013.3 959.0
21 12.07 С 4
{11}
н/о н/о +23.0 +12.1 50 +26 +26 жарко 1013.9 959.6
22 12.07 СЗ 5
{12}
н/о н/о +23.0 +11.8 49 +25 +25 комфорт 1013.9 959.6
23 12.07 С 4
{8}
н/о н/о +21.7 +12.8 57 +24 +24 комфорт 1014.5 959.9
00 13.07 СЗ 5
{12}
н/о н/о +21.2 +12.8 59 +23 +23 комфорт 1014.5 959.8
01 13.07 СЗ 5
{9}
н/о н/о +20.3 +12.9 62 +22 +22 комфорт 1014.5 959.6
02 13.07 СЗ 4
{7}
н/о н/о +19.6 +12.8 65 +21 +21 комфорт 1014.3 959.3
03 13.07 СЗ 3
{12}
н/о н/о +18.3 +13.2 72 +19 +19 1015.2 959.9
04 13.07 СЗ 4
{6}
н/о н/о +17.7 +13.7 77 +18 +18 1015.7 960.3 0.1
05 13.07 СЗ 4
{7}
н/о н/о +17.5 +14.0 80 +17 +17 1015.9 960.4
06 13.07 СЗ 4
{12}
н/о н/о +17.9 +14.0 78 +18 +18 1015.8 960.4 +17.1
07 13.07 СЗ 4
{7}
н/о н/о +19.0 +14.4 75 +20 +20 1015.8 960.6
08 13.07 СЗ 6
{10}
н/о н/о +21.2 +13.6 62 +24 +24 комфорт 1015.5 960.7
09 13.07 СЗ 6
{11}
н/о н/о +22.0 +12.9 56 +25 +25 комфорт 1015.1 960.5
10 13.07 СЗ 7
{12}
н/о н/о +22.7 +11.1 48 +25 +25 комфорт 1015.0 960.6
11 13.07 СЗ 7
{13}
н/о н/о +23.5 +10.5 44 +25 +25 комфорт 1014.6 960.3
12 13.07 С 7
{13}
н/о н/о +24.2 +10.1 41 +25 +25 комфорт 1014.4 960.3
13 13.07 СЗ 7
{12}
н/о н/о +24.8 +9.7 38 +26 +26 жарко 1014.0 960.0
14 13.07 СЗ 6
{14}
н/о н/о +25.1 +8.6 35 +26 +26 жарко 1013.6 959.7
15 13.07 СЗ 7
{14}
н/о н/о +25.1 +7.6 33 +25 +25 комфорт 1013.6 959.7
16 13.07 СЗ 6
{12}
н/о н/о +24.9 +7.7 33 +25 +25 комфорт 1013.4 959.5
17 13.07 СЗ 5
{11}
н/о н/о +23.3 +8.3 38 +24 +24 комфорт 1014.0 959.7
18 13.07 С 4
{14}
н/о н/о +22.6 +7.9 39 +24 +24 комфорт 1014.2 959.8 +25.3
19 13.07 С 3
{9}
н/о н/о +22.0 +8.0 41 +23 +23 комфорт 1014.8 960.2
20 13.07 СЗ 3
{7}
н/о н/о +20.2 +8.7 48 +22 +22 комфорт 1015.4 960.5
21 13.07 СЗ 4
{9}
н/о н/о +19.4 +9.2 52 +20 +20 1015.7 960.6
22 13.07 СЗ 3
{5}
н/о н/о +18.7 +9.3 54 +20 +20 1015.8 960.5
23 13.07 С 2
{3}
н/о н/о +16.8 +9.7 63 +17 +17 1016.0 960.4
00 14.07 СЗ 1
{9}
н/о н/о +16.7 +9.3 62 +18 +18 1015.6 960.0
01 14.07 СЗ 2
{3}
н/о н/о +15.8 +8.8 63 +16 +16 1015.4 959.6
02 14.07 Ю 1
{3}
н/о н/о +14.2 +9.5 73 +15 +15 1015.5 959.4
03 14.07 ЮЗ 1
{3}
н/о н/о +13.8 +9.2 74 +14 +14 1015.5 959.3
04 14.07 Ю 2
{3}
н/о н/о +14.1 +9.3 73 +14 +14 1015.2 959.1
05 14.07 Ю 2
{3}
н/о н/о +13.6 +9.2 75 +13 +13 1015.2 959.0
06 14.07 С 1
{3}
н/о н/о +13.8 +9.4 75 +15 +15 1015.0 958.8 +13.4
07 14.07 В 1
{2}
н/о н/о +16.2 +10.9 71 +18 +18 1014.4 958.7
08 14.07 СВ 2
{4}
н/о н/о +18.9 +10.2 57 +20 +20 1013.6 958.5
09 14.07 С 5
{9}
н/о н/о +20.5 +10.6 53 +22 +22 комфорт 1012.7 958.0
10 14.07 СЗ 7
{11}
н/о н/о +21.6 +11.0 51 +23 +23 комфорт 1011.8 957.3
11 14.07 СЗ 7
{12}
н/о н/о +23.0 +11.6 49 +25 +25 комфорт 1011.1 956.9
12 14.07 СЗ 7
{13}
н/о н/о +24.1 +11.8 46 +26 +26 жарко 1010.3 956.4
13 14.07 С 7
{13}
н/о н/о +24.7 +10.6 41 +26 +26 жарко 1009.7 955.9
14 14.07 С 6
{12}
н/о н/о +24.0 +10.3 42 +25 +25 комфорт 1009.6 955.7
15 14.07 С 6
{13}
н/о н/о +23.3 +9.6 42 +25 +25 комфорт 1009.5 955.5
16 14.07 С 4
{9}
н/о н/о +23.5 +9.8 42 +25 +25 комфорт 1009.1 955.1
17 14.07 С 5
{8}
н/о н/о +23.6 +8.9 39 +24 +24 комфорт 1009.0 955.0
18 14.07 С 7
{13}
н/о н/о +23.0 +8.8 40 +24 +24 комфорт 1009.3 955.2 +25.1
19 14.07 СЗ 5
{14}
н/о н/о +20.8 +11.7 56 +23 +23 комфорт 1010.5 955.9
20 14.07 СЗ 6
{10}
н/о н/о +20.1 +11.0 56 +21 +21 комфорт 1010.8 956.1
21 14.07 С 7
{14}
н/о н/о +19.3 +11.1 59 +20 +20 1011.5 956.6
22 14.07 СЗ 6
{13}
н/о н/о +17.5 +11.0 66 +17 +17 1012.5 957.2
23 14.07 СЗ 6
{11}
н/о н/о +15.0 +12.9 87 +13 +13 1013.2 957.4 0.5
00 15.07 З 2
{14}
н/о н/о +14.1 +12.8 92 +14 +14 1013.0 957.0 2
01 15.07 Ю 1
{3}
н/о н/о +13.9 +12.8 93 +14 +14 1013.0 957.0 0.1
02 15.07 СЗ 2
{3}
н/о н/о +13.7 +12.6 93 +13 +13 1013.2 957.1
03 15.07 Ю 2
{4}
н/о н/о +13.8 +12.9 94 +13 +13 1013.3 957.2
04 15.07 СЗ 1
{6}
н/о н/о +13.3 +11.8 91 +13 +13 1013.4 957.2 0.3
05 15.07 Ю 4
{7}
н/о н/о +13.1 +11.8 92 +11 +11 1013.7 957.5 2
06 15.07 В 6
{8}
н/о н/о +13.0 +11.2 89 +11 +11 1013.8 957.5 +12.9 0.1
07 15.07 ЮВ 3
{10}
н/о н/о +13.9 +10.6 80 +13 +13 1014.1 958.0
08 15.07 ЮВ 5
{8}
н/о н/о +14.2 +11.0 81 +12 +12 1014.0 958.0
09 15.07 ЮВ 4
{10}
н/о н/о +16.4 +11.3 72 +16 +16 1013.7 958.1
10 15.07 Ю 4
{7}
н/о н/о +18.0 +9.5 58 +18 +18 1013.2 958.0
11 15.07 Ю 4
{7}
н/о н/о +19.7 +9.6 52 +21 +21 комфорт 1012.4 957.5
12 15.07 С 2
{10}
н/о н/о +20.9 +9.1 47 +23 +23 комфорт 1011.9 957.3
13 15.07 С 3
{7}
н/о н/о +21.2 +10.9 52 +23 +23 комфорт 1011.9 957.3
14 15.07 СЗ 5
{10}
н/о н/о +21.4 +11.5 53 +23 +23 комфорт 1012.1 957.6
15 15.07 СЗ 5
{10}
н/о н/о +22.6 +11.6 50 +25 +25 комфорт 1011.8 957.5
16 15.07 С 6
{11}
н/о н/о +22.4 +11.7 51 +25 +25 комфорт 1011.8 957.5
17 15.07 СЗ 5
{11}
н/о н/о +21.4 +11.5 53 +23 +23 комфорт 1012.1 957.6
18 15.07 СЗ 5
{11}
н/о н/о +20.9 +11.9 56 +23 +23 комфорт 1012.7 958.0 +23.0
19 15.07 СЗ 4
{8}
н/о н/о +20.2 +11.8 58 +22 +22 комфорт 1013.3 958.5
20 15.07 СЗ 3
{6}
н/о н/о +19.1 +11.5 61 +20 +20 1014.2 959.1
21 15.07 СЗ 3
{8}
н/о н/о +18.7 +11.8 64 +20 +20 1014.9 959.7
22 15.07 С 2
{3}
н/о н/о +17.3 +12.0 71 +18 +18 1015.6 960.1
23 15.07 С 2
{3}
н/о н/о +16.0 +11.9 77 +16 +16 1016.1 960.3
00 16.07 Ю 1
{8}
н/о н/о +15.7 +11.1 74 +17 +17 1016.4 960.5
01 16.07 Ю 1
{3}
н/о н/о +14.5 +11.5 82 +15 +15 1017.1 961.0
02 16.07 Ю 1
{2}
н/о н/о +14.7 +11.6 82 +15 +15 1017.1 961.0
03 16.07 Ю 2
{3}
н/о н/о +14.2 +11.3 83 +14 +14 1017.1 960.9
04 16.07 Ю 2
{4}
н/о н/о +14.0 +11.1 83 +13 +13 1017.3 961.0
05 16.07 ЮВ 3
{5}
н/о н/о +14.6 +11.0 79 +14 +14 1017.4 961.3
06 16.07 Ю 2
{5}
н/о н/о +14.5 +11.4 82 +14 +14 1017.5 961.3 +13.9
07 16.07 ЮВ 4
{6}
н/о н/о +16.5 +11.8 74 +16 +16 1017.0 961.3
08 16.07 В 1
{6}
н/о н/о +19.1 +12.3 65 +21 +21 комфорт 1016.4 961.2
09 16.07 СВ 1
{6}
н/о н/о +20.8 +11.9 57 +24 +24 комфорт 1015.7 960.9
10 16.07 СЗ 5
{10}
н/о н/о +22.3 +12.4 53 +25 +25 комфорт 1014.9 960.4
11 16.07 СЗ 7
{12}
н/о н/о +23.2 +11.9 49 +26 +26 жарко 1014.2 959.9
12 16.07 СЗ 8
{12}
н/о н/о +24.4 +12.7 48 +26 +26 жарко 1013.5 959.5
13 16.07 СЗ 8
{12}
н/о н/о +25.5 +13.6 48 +28 +28 жарко 1013.0 959.2
14 16.07 СЗ 7
{13}
н/о н/о +26.2 +12.5 43 +28 +28 жарко 1012.7 959.0
15 16.07 С 7
{13}
н/о н/о +26.7 +12.1 40 +28 +28 жарко 1012.4 958.8
16 16.07 СЗ 6
{11}
н/о н/о +27.0 +11.5 38 +28 +28 жарко 1012.1 958.6
17 16.07 СЗ 4
{10}
н/о н/о +25.5 +11.0 40 +27 +27 жарко 1012.4 958.6
18 16.07 СЗ 4
{13}
н/о н/о +24.5 +9.0 37 +25 +25 комфорт 1012.7 958.7 +27.1
19 16.07 СЗ 3
{6}
н/о н/о +23.3 +7.5 36 +24 +24 комфорт 1013.2 959.0
20 16.07 СЗ 2
{5}
н/о н/о +21.8 +7.0 38 +23 +23 комфорт 1014.0 959.4
21 16.07 С 3
{6}
н/о н/о +20.1 +9.0 49 +22 +22 комфорт 1014.5 959.6
22 16.07 С 2
{4}
н/о н/о +20.3 +8.7 47 +22 +22 комфорт 1014.4 959.5
23 16.07 СЗ 2
{3}
н/о н/о +19.1 +9.2 53 +20 +20 1015.0 959.9
00 17.07 С 1
{6}
н/о н/о +17.8 +9.3 57 +19 +19 1015.4 960.0
01 17.07
{2}
н/о н/о +17.6 +9.1 57 1015.4 960.0
02 17.07 Ю 2
{3}
н/о н/о +16.0 +10.0 68 +16 +16 1015.7 959.9
03 17.07 Ю 2
{3}
н/о н/о +16.2 +9.6 65 +16 +16 1015.3 959.6
04 17.07 Ю 1
{4}
н/о н/о +16.5 +9.4 63 +17 +17 1015.4 959.7
05 17.07 ЮВ 2
{4}
н/о н/о +15.9 +9.7 67 +16 +16 1015.5 959.7
06 17.07 Ю 2
{5}
н/о н/о +16.1 +10.1 68 +16 +16 1015.2 959.5 +15.5
07 17.07 Ю 2
{3}
н/о н/о +18.4 +11.1 62 +20 +20 1014.8 959.5
08 17.07 В 1
{4}
н/о н/о +20.9 +11.9 56 +24 +24 комфорт 1014.1 959.4
09 17.07 С 3
{8}
н/о н/о +22.8 +11.8 50 +25 +25 комфорт 1013.2 958.9
10 17.07 СЗ 6
{12}
н/о н/о +23.6 +11.3 46 +25 +25 комфорт 1012.5 958.4
11 17.07 С 7
{11}
н/о н/о +25.5 +10.0 38 +26 +26 жарко 1012.1 958.3
12 17.07 СЗ 6
{12}
н/о н/о +26.3 +10.2 36 +27 +27 жарко 1011.3 957.7
13 17.07 СЗ 7
{11}
н/о н/о +27.2 +9.5 33 +28 +28 жарко 1010.4 957.0
14 17.07 С 7
{11}
н/о н/о +27.3 +7.0 28 +27 +27 жарко 1010.1 956.8
15 17.07 СЗ 6
{11}
н/о н/о +26.9 +6.3 27 +26 +26 жарко 1010.1 956.7
16 17.07 СЗ 5
{9}
н/о н/о +26.4 +7.2 29 +26 +26 жарко 1009.9 956.4
17 17.07 СЗ 4
{7}
н/о н/о +24.7 +8.0 34 +25 +25 комфорт 1010.1 956.3
18 17.07 СЗ 3
{11}
н/о н/о +24.3 +8.5 37 +25 +25 комфорт 1010.2 956.3 +28.1
19 17.07 СЗ 2
{5}
н/о н/о +22.7 +9.6 43 +24 +24 комфорт 1010.6 956.4
20 17.07 СЗ 3
{5}
н/о н/о +22.5 +9.2 43 +24 +24 комфорт 1011.1 956.8
21 17.07 С 3
{6}
н/о н/о +20.9 +10.0 50 +23 +23 комфорт 1012.0 957.4
22 17.07 СЗ 3
{5}
н/о н/о +21.0 +8.6 45 +23 +23 комфорт 1012.3 957.7
23 17.07 С 2
{4}
н/о н/о +19.0 +8.3 50 +20 +20 1012.8 957.8
00 18.07 С 2
{6}
н/о н/о +19.8 +6.7 42 +21 +21 комфорт 1012.6 957.7
01 18.07 С 1
{3}
н/о н/о +18.0 +7.6 51 +19 +19 1012.8 957.6
02 18.07 С 2
{4}
н/о н/о +18.0 +7.3 50 +19 +19 1013.0 957.8
03 18.07 С 2
{6}
н/о н/о +17.9 +8.1 53 +19 +19 1013.2 957.9
04 18.07 С 3
{4}
н/о н/о +17.4 +7.9 54 +18 +18 1013.3 957.9
05 18.07 СЗ 2
{4}
н/о н/о +17.5 +8.0 54 +18 +18 1013.6 958.2
06 18.07 С 2
{6}
н/о н/о +16.8 +9.3 61 +17 +17 1014.1 958.6 +16.8
07 18.07 Ю 1
{3}
н/о н/о +17.6 +10.0 61 +19 +19 1014.1 958.7
08 18.07 СВ 2
{3}
н/о н/о +21.2 +10.0 49 +23 +23 комфорт 1013.1 958.5
09 18.07 СЗ 5
{9}
н/о н/о +23.6 +9.3 40 +24 +24 комфорт 1012.2 958.1
10 18.07 СЗ 6
{10}
н/о н/о +25.3 +7.8 33 +25 +25 комфорт 1011.9 958.1
11 18.07 С 6
{11}
н/о н/о +26.1 +7.7 31 +26 +26 жарко 1011.5 957.9
12 18.07 СЗ 6
{11}
н/о н/о +26.9 +7.7 30 +27 +27 жарко 1010.9 957.5
13 18.07 СЗ 6
{10}
н/о н/о +27.5 +7.7 29 +27 +27 жарко 1010.4 957.1
14 18.07 СЗ 6
{11}
н/о н/о +28.0 +5.7 24 +27 +27 жарко 1010.3 957.1
15 18.07 СЗ 6
{11}
н/о н/о +27.4 +7.4 28 +27 +27 жарко 1010.3 957.0
16 18.07 СЗ 5
{11}
н/о н/о +26.3 +8.0 31 +26 +26 жарко 1010.7 957.2
17 18.07 СЗ 3
{8}
н/о н/о +25.3 +8.7 35 +26 +26 жарко 1011.2 957.4
18 18.07 СЗ 4
{11}
н/о н/о +24.7 +9.7 39 +26 +26 жарко 1011.6 957.7 +28.0
19 18.07 СЗ 3
{5}
н/о н/о +23.3 +10.2 43 +25 +25 комфорт 1012.5 958.3
20 18.07 СЗ 3
{5}
н/о н/о +22.7 +9.6 43 +24 +24 комфорт 1013.3 958.9
21 18.07 СЗ 2
{6}
н/о н/о +20.9 +10.1 50 +23 +23 комфорт 1014.5 959.7
22 18.07 С 2
{4}
н/о н/о +20.4 +10.4 53 +23 +23 комфорт 1014.8 959.9
23 18.07 С 2
{3}
н/о н/о +19.0 +10.8 59 +21 +21 комфорт 1015.5 960.3
00 19.07 СЗ 2
{6}
н/о н/о +18.9 +11.0 60 +20 +20 1015.6 960.4
01 19.07 В 1
{3}
н/о н/о +17.7 +10.9 64 +19 +19 1016.0 960.5
02 19.07 В 1
{1}
н/о н/о +17.1 +11.0 67 +19 +19 1016.3 960.7
03 19.07 ЮЗ 2
{3}
н/о н/о +16.3 +11.1 71 +17 +17 1016.9 961.1
04 19.07 ЮЗ 2
{2}
н/о н/о +16.0 +11.1 73 +16 +16 1017.0 961.2
05 19.07 Ю 2
{3}
н/о н/о +16.1 +10.9 71 +16 +16 1017.2 961.4
06 19.07 Ю 2
{3}
н/о н/о +16.1 +10.4 69 +16 +16 1017.3 961.5 +15.6
07 19.07 В 1
{3}
н/о н/о +17.8 +12.6 72 +19 +19 1017.1 961.6
08 19.07 В 1
{3}
н/о н/о +20.9 +11.9 56 +24 +24 комфорт 1016.4 961.5
09 19.07 С 2
{5}
н/о н/о +23.6 +12.2 49 +25 +25 комфорт 1015.6 961.3
10 19.07 СЗ 5
{9}
н/о н/о +24.6 +12.3 46 +26 +26 жарко 1014.8 960.7
11 19.07 СЗ 6
{12}
н/о н/о +25.1 +11.7 43 +27 +27 жарко 1014.4 960.4
12 19.07 СЗ 6
{12}
н/о н/о +26.2 +10.9 38 +27 +27 жарко 1013.7 960.0
13 19.07 СЗ 6
{12}
н/о н/о +27.2 +10.2 34 +28 +28 жарко 1013.1 959.6
14 19.07 СЗ 7
{12}
н/о н/о +27.6 +10.3 34 +28 +28 жарко 1012.6 959.2
15 19.07 С 5
{12}
н/о н/о +28.1 +10.5 33 +29 +29 жарко 1012.3 959.0
16 19.07 СЗ 6
{11}
н/о н/о +28.1 +10.9 34 +29 +29 жарко 1012.1 958.8
17 19.07 СЗ 5
{10}
н/о н/о +27.3 +11.4 37 +28 +28 жарко 1011.9 958.5
18 19.07 СЗ 5
{12}
н/о н/о +25.7 +10.9 39 +27 +27 жарко 1012.2 958.5 +28.3

 

Местоположение метеостанции Эвьона (Швейцария): широта 46.18 долгота 7.03 высота над уровнем моря 482 м.

В архиве по умолчанию представлена погода в Эвьоне за последнюю неделю. Архивные данные за месяц целиком и за предыдущие месяцы, начиная с января 2011 года, Вы можете получить, выбрав интересующий диапазон дат из раскрывающегося списка и нажав кнопку "Ввод!".


*Определитесь, кто Вы:
робот инопланетянин человек

Внимание! Время в таблицах - всемирное. Для получения местного времени необходимо прибавить поправку, которая равна 1 ч.

Смотрите также архив погоды в соседних городах и на ближайших метеорологических станциях:

Погода в Сальване (Швейцария) (7 км)
Погода в Фее (Швейцария) (18 км)
Погода в Эгле (Швейцария) (19 км)
Погода в Монтанье-Баньес (Швейцария) (20 км)
Погода в Лез Алта (Швейцария) (21 км)
Погода на Ле-Дьяблере (Швейцария) (21 км)
Погода в Сьоне (Швейцария) (24 км)
Погода в Коль де Моссе (Швейцария) (24 км)
Погода в Ле-Бувре (Швейцария) (27 км)
Погода в Монтрё-Кларане (Швейцария) (32 км)

Пояснения к столбцам:

Ветер - указаны скорость ветра в м/с - средняя за 10 мин, порывы в срок и между сроками (в фигурных скобках) и направление, откуда дует ветер: С - северный, СВ - северо-восточный, В - восточный, ЮВ - юго-восточный, Ю - южный, ЮЗ - юго-западный, З - западный, СЗ - северо-западный.
Видимость - горизонтальная дальность видимости в метрах или километрах. При видимости от 1 до 10 км при отсутствии осадков обычно наблюдается дымка, при ухудшении видимости до 1 км и менее - туман. В сухую погоду видимость может ухудшаться дымом, пылью или мглою.
Явления - указаны атмосферные явления, наблюдавшиеся в срок или в последний час перед сроком; фигурными скобками обозначены явления, наблюдавшиеся между сроками (за 1-3 часа до срока); квадратными скобками обозначены град или гололедные отложения с указанием их диаметра в мм.
Облачность - указаны через наклонную черту общая и нижняя облачность в баллах и высота нижней границы облаков в метрах; квадратными скобками обозначены формы облаков: Ci - перистые, Cs - перисто-слоистые, Cc - перисто-кучевые, Ac - высококучевые, As - высокослоистые, Sc - слоисто-кучевые, Ns - слоисто-дождевые, Cu - кучевые, Cb - кучево-дождевые. Подробнее классификацию облаков см. в Атласе облаков (PDF).
T - Температура воздуха - температура, измеренная на высоте 2 м над землей.
Td - Температура точки росы - температура, при понижении до которой содержащийся в воздухе водяной пар достигнет насыщения.
f - Относительная влажность воздуха - влажноcть воздуха, измеренная на высоте 2 м над землей.
Te - Эффективная температура - температура, которую ощущает одетый по сезону человек в тени. Характеристика душности погоды. При расчете учитывается влияние влажности воздуха и скорости ветра на теплоощущения человека.
Tes - Эффективная температура на солнце - температура, которую ощущает человек, с поправкой на солнечный нагрев. Характеристика знойности погоды. Зависит от высоты солнца над горизонтом, облачности и скорости ветра. Ночью, в пасмурную погоду, а также при ветре 12 м/с и более поправка равна нулю.
P - Атмосферное давление - приведенное к уровню моря атмосферное давление.
Po - Атмосферное давление - измеренное на уровне метеостанции атмосферное давление.
Tmin - Минимальная температура - минимум температуры воздуха на высоте 2 м над землей.
Tmax - Максимальная температура - максимум температуры воздуха на высоте 2 м над землей.
R - Количество осадков - Количество выпавших осадков за период времени, мм. При наведении курсора мыши на число - период времени, за который выпало указанное количество осадков.
R24 - Количество осадков - Количество выпавших осадков за 24 часа, мм.
S - Снежный покров - Высота снежного покрова, см. При наведении курсора мыши на число - состояние снежного покрова и степень покрытия местности в баллах.